Notices

What's New in latest Release from April 7th, 2021:

- Updated Glossary, including Speed of Maximum Gust, and Total Hourly Precipitation

- Updated national and regional climate services offices contacts and prices information

- Addition of station inventory lists for 1981-2010, 1971-2000, and 1961-1990 Normals.

If you haven't already, please take our survey and provide feedback about our website: https://eccc.sondage-survey.ca/f/LanguageSelection.aspx?s=442ca660-fcf1-47c0-95a9-59707d6fd709

Hourly Data Report for December 04, 2020

SHEARWATER RCS
NOVA SCOTIA
Current Station Operator: ECCC - MSC

44°37'47.000" N
63°30'48.000" W
24.00 m
8205092
71264
AAW

Download Data

Hourly Data (December 2020)
Hourly Data Report for December 4, 2020
TIME
LST
Temp Definition
°C
Dew Point Definition
°C
Rel Hum Definition
%
Precip. Amount Definition
mm

Wind Dir Definition
10's deg

Wind Spd Definition
km/h
Visibility Definition
km
Stn Press Definition
kPa
Hmdx Definition


Wind Chill Definition


Weather Definition


00:00 1.3 -0.4 89 0.0 0 1   101.71     LegendNANA
01:00 1.9 0.4 90 0.0 0 1   101.70     LegendNANA
02:00 2.2 0.8 90 0.0 21 1   101.69     LegendNANA
03:00 3.6 2.3 91 0.0 16 2   101.69     LegendNANA
04:00 6.2 4.3 88 0.0 19 7   101.64     LegendNANA
05:00 7.0 4.8 86 0.0 18 8   101.58     LegendNANA
06:00 7.8 5.5 85 0.0 18 11   101.58     LegendNANA
07:00 8.4 6.9 90 0.0 18 15   101.57     LegendNANA
08:00 8.4 6.8 89 0.0 21 10   101.60     LegendNANA
09:00 7.8 5.0 82 0.0 21 10   101.65     LegendNANA
10:00 8.9 5.5 80 0.0 20 11   101.68     LegendNANA
11:00 9.8 5.8 76 0.0 20 16   101.66     LegendNANA
12:00 10.3 7.0 80 0.0 20 19   101.59     LegendNANA
13:00 10.8 6.0 72 0.0 21 24   101.56     LegendNANA
14:00 10.2 6.4 77 0.0 22 21   101.52     LegendNANA
15:00 10.3 6.1 75 0.0 21 19   101.47     LegendNANA
16:00 10.1 6.6 79 0.0 21 22   101.48     LegendNANA
17:00 9.6 6.9 83 0.0 19 21   101.44     LegendNANA
18:00 9.5 7.3 86 0.0 20 18   101.46     LegendNANA
19:00 9.7 7.4 85 0.0 20 17   101.45     LegendNANA
20:00 10.1 6.9 80 0.0 20 20   101.43     LegendNANA
21:00 10.1 7.7 85 0.0 20 19   101.36     LegendNANA
22:00 10.1 7.9 86 0.0 21 17   101.37     LegendNANA
23:00 10.5 7.7 83 0.0 20 15   101.32     LegendNANA

Notes on Data Quality.

Legend

  • E = Estimated
  • M = Missing
  • NA = Not Available*
  • [empty] = Indicates an unobserved value
Date modified: